Weather in Verkhnyaya Staritsa

Russia / Perm Krai     60°13′58″N   54°39′55″E
temp.,
°C
wind,
m/s
gust,
m/s
humid.,
%
clouds,
%
prec.,
mm/h
press.,
hPa
HPBL,
m
19 january, wed
wed1923:00−6ssw3995100 0.2 1003361
02:00−6s2797100 0.1 1005184
05:00−6sw1498100 0.2 1006106
08:00−7wsw1198100 0.6 100712
11:00−10sw119978 0.8 100812
14:00−8w259659 0.0 1011202
17:00−14sw119968 0.0 10129
20:00−17sw1110099 0.0 10139
20 january, thu
thu2023:00−16s2510099 0.0 101364
02:00−14ssw169761 0.1 1013134
05:00−17ssw269856 0.1 101392
08:00−17ssw29979 0.0 1013158
11:00−15s413935 0.0 1013301
14:00−11ssw514898 0.0 1013541
17:00−10s5148799 0.0 1012585
20:00−9ssw5158595 0.0 1012659
21 january, fri
fri2123:00−7ssw51489100 0.1 1012771
02:00−7ssw51493100 0.6 1013784
05:00−7ssw51491100 1.1 1014735
08:00−6ssw4128691 0.1 1015605
11:00−7ssw4118972 0.1 1017531
14:00−7ssw4119092 0.0 1019525
17:00−9s389197 0.0 1020256
20:00−10s399499 0.0 1022252
22 january, sat
sat2223:00−12s3894100 0.0 1023196
02:00−15s279751 0.0 1025104
05:00−19sse2210056 0.0 102732
08:00−20sse1210063 0.0 102722
11:00−19se12995 0.0 102942
14:00−12sse13885 0.0 1029110
17:00−16ese119861 0.0 10309
20:00−16ese119895 0.0 103110
23 january, sun
sun2323:00−17ese119999 0.0 10319
02:00−16ese119982 0.0 103210
05:00−18ene0010087 0.0 10339
08:00−17e1110074 0.0 10339
11:00−19sse1110090 0.0 103511
14:00−11se1291100 0.0 1035106
17:00−14se119752 0.0 10369
20:00−18se1198100 0.0 103810